[[{"header":{"parameterUnit":"m.s-1","parameterCategory":1,"la1":30.2991,"la2":30.254,"lo1":-89.0895,"lo2":-89.0444,"dy":0.0017,"dx":0.0017,"nx":28,"ny":28,"refTime":"2025-04-26T21:00:00:Z","depth":0,"parameterNumber":2,"parameterNumberName":"U-component_of_WINDS"},"data":[0,0,0,0,0,0,0,0,0,0,0,0,0,0,0,0,0,0,0,0,0,0,0,0,0,0,0,0,0,0,0,0,0,0,0,0,0,0,0,0,0,0,0,0,0,0,0,0,0,0,0,0,0,0,0,0,0,0,-0.1862,-0.186,0,-0.1722,-0.172,-0.1719,-0.1681,-0.1682,-0.1683,-0.1684,-0.1534,-0.153,-0.1525,0,0,0,0,0,0,0,0,0,0,0,0,0,-0.2093,-0.2088,-0.1862,-0.186,-0.1858,-0.1722,-0.172,-0.1718,-0.1681,-0.1682,-0.1683,-0.1684,-0.1536,-0.153,-0.1525,0,0,0,0,0,0,0,0,0,0,0,0,0,-0.1976,-0.2087,-0.1862,-0.1824,-0.1819,-0.1722,-0.172,-0.1718,-0.1681,-0.1682,-0.1684,-0.1685,-0.1538,-0.1531,-0.1524,-0.1454,0,0,-0.1502,-0.1499,0,0,0,0,0,0,0,0,-0.1983,-0.1968,-0.1831,-0.1826,-0.1821,-0.1721,-0.1747,-0.1629,-0.1681,-0.1733,-0.1684,-0.1686,-0.1595,-0.1583,-0.1554,-0.1447,-0.144,-0.1501,-0.1497,-0.1494,-0.1492,0,0,0,0,0,0,0,-0.1991,-0.1974,-0.1806,-0.1829,-0.1823,-0.1812,-0.1797,-0.1724,-0.1658,-0.1729,-0.1726,-0.171,-0.1592,-0.1561,-0.155,-0.1438,-0.1501,-0.1495,-0.1491,-0.1488,-0.1267,-0.1266,0,0,0,0,0,0,-0.2006,-0.1981,-0.1811,-0.1802,-0.1907,-0.1807,-0.179,-0.1751,-0.1659,-0.1646,-0.1709,-0.1709,-0.1572,-0.1558,-0.1545,-0.1457,-0.1494,-0.1487,-0.1483,-0.1269,-0.1267,-0.1265,0,0,0,0,0,0,-0.2012,-0.1992,-0.1816,-0.189,-0.1867,-0.1801,-0.1758,-0.1748,-0.1716,-0.1644,-0.1632,-0.1689,-0.1573,-0.1555,-0.1477,-0.1451,-0.1484,-0.1477,-0.1271,-0.1268,-0.1266,-0.128,0,0,0,0,0,0,-0.2018,-0.1994,-0.1967,-0.189,-0.1864,-0.1753,-0.1757,-0.1744,-0.1705,-0.1703,-0.1622,-0.161,-0.1573,-0.1488,-0.147,-0.1442,-0.1472,-0.1273,-0.1269,-0.1267,-0.1282,-0.1279,-0.1276,0,0,0,0,0,-0.2027,-0.1975,-0.1966,-0.1946,-0.183,-0.1751,-0.1736,-0.1695,-0.1703,-0.1675,-0.1629,-0.1613,-0.1457,-0.1481,-0.146,-0.1429,-0.1274,-0.127,-0.1267,-0.1283,-0.1279,-0.1276,0,0,0,0,0,0,-0.2048,-0.1965,-0.1953,-0.1876,-0.1822,-0.1745,-0.1709,-0.1692,-0.1633,-0.1633,-0.1584,-0.1566,-0.1492,-0.1452,-0.148,-0.1357,-0.1365,-0.1358,-0.1385,-0.138,-0.1378,-0.1388,-0.1466,0,0,0,0,0,-0.2045,-0.199,-0.1919,-0.1857,-0.1831,-0.1775,-0.1739,-0.1713,-0.1653,-0.1629,-0.1578,-0.1519,-0.1457,-0.1417,-0.1355,-0.1277,-0.1258,-0.1245,-0.1243,-0.1241,-0.1234,-0.1189,-0.1183,-0.1254,-0.1254,-0.1254,0,0,-0.2035,-0.1983,-0.1951,-0.186,-0.1815,-0.1758,-0.1755,-0.1695,-0.1651,-0.1619,-0.1544,-0.1504,-0.1435,-0.1357,-0.132,-0.1322,-0.1211,-0.1236,-0.1235,-0.1229,-0.1185,-0.1178,-0.1173,-0.1251,-0.1252,-0.1252,0,0,-0.1989,-0.1944,-0.1889,-0.1844,-0.1776,-0.174,-0.1727,-0.1653,-0.1626,-0.155,-0.1525,-0.1473,-0.1367,-0.1319,-0.1281,-0.1219,-0.1202,-0.1201,-0.1185,-0.1142,-0.1137,-0.1131,-0.1109,-0.1101,-0.1195,-0.1195,-0.1195,0,-0.1985,-0.19,-0.1861,-0.1802,-0.1763,-0.1735,-0.1677,-0.1635,-0.155,-0.1523,-0.1528,-0.1395,-0.1347,-0.1257,-0.1243,-0.1213,-0.1195,-0.1209,-0.1141,-0.1135,-0.113,-0.1108,-0.1099,-0.1195,-0.1195,-0.1195,-0.1195,0,-0.1899,-0.184,-0.1803,-0.1724,-0.1681,-0.1623,-0.1574,-0.1535,-0.1513,-0.1476,-0.1399,-0.134,-0.1267,-0.1245,-0.1221,-0.1152,-0.1155,-0.1151,-0.1158,-0.1124,-0.1102,-0.1094,-0.1195,-0.1195,-0.1195,-0.1195,0,0,-0.1859,-0.1763,-0.1749,-0.1714,-0.1638,-0.1591,-0.1532,-0.1463,-0.143,-0.1373,-0.1321,-0.1234,-0.123,-0.1187,-0.1159,-0.1121,-0.1076,-0.1122,-0.1119,-0.1115,-0.0995,-0.0998,-0.0989,-0.1065,-0.1064,-0.1062,-0.1001,0,-0.1803,-0.1698,-0.1663,-0.1575,-0.152,-0.1494,-0.1442,-0.1389,-0.1354,-0.1301,-0.126,-0.1199,-0.1199,-0.1173,-0.1135,-0.109,-0.1051,-0.1094,-0.1015,-0.1013,-0.1032,-0.0978,-0.098,-0.0925,-0.0992,-0.0991,-0.099,0,-0.1722,-0.1667,-0.1575,-0.1508,-0.1483,-0.1438,-0.1372,-0.1323,-0.1262,-0.1239,-0.1192,-0.1167,-0.1103,-0.1117,-0.1027,-0.1057,-0.1023,-0.0996,-0.0993,-0.0983,-0.0998,-0.0965,-0.0907,-0.0898,-0.0976,-0.0977,-0.0978,0,-0.1703,-0.1605,-0.1537,-0.1508,-0.1428,-0.1396,-0.1361,-0.1302,-0.1264,-0.1206,-0.118,-0.1115,-0.1079,-0.1029,-0.0987,-0.1,-0.0901,-0.0911,-0.0879,-0.088,-0.0857,-0.0859,-0.0791,-0.0838,-0.0838,-0.0838,-0.0838,0,-0.1642,-0.1587,-0.1527,-0.1486,-0.1423,-0.1382,-0.132,-0.1283,-0.1232,-0.1182,-0.1154,-0.1107,-0.1055,-0.1001,-0.0968,-0.0899,-0.0883,-0.0861,-0.0853,-0.0863,-0.0865,-0.0838,-0.0841,-0.0836,-0.0836,-0.0837,-0.0837,0,-0.1608,-0.1567,-0.1491,-0.1423,-0.1404,-0.1361,-0.1301,-0.1259,-0.1224,-0.116,-0.1143,-0.1086,-0.1021,-0.0975,-0.0891,-0.0869,-0.0794,-0.0786,-0.0815,-0.0811,-0.0781,-0.0784,-0.0692,-0.0678,-0.0735,-0.0735,-0.0735,0,-0.1572,-0.1529,-0.1457,-0.1423,-0.1389,-0.1333,-0.1294,-0.1253,-0.1213,-0.1143,-0.1109,-0.1043,-0.0988,-0.0886,-0.0836,-0.0771,-0.0761,-0.0734,-0.0751,-0.0763,-0.0759,-0.0762,-0.0757,-0.073,-0.073,-0.073,-0.0729,0,-0.1512,-0.1494,-0.144,-0.138,-0.1335,-0.1284,-0.1233,-0.1206,-0.1156,-0.1113,-0.1047,-0.1005,-0.0921,-0.0855,-0.0787,-0.0748,-0.073,-0.0725,-0.0714,-0.0723,-0.0741,-0.073,-0.0807,-0.0726,-0.0727,-0.0727,-0.0727,-0.0727,-0.1475,-0.1436,-0.138,-0.1321,-0.1279,-0.1232,-0.119,-0.115,-0.1096,-0.1026,-0.1004,-0.0937,-0.0878,-0.0785,-0.0746,-0.0692,-0.0693,-0.0677,-0.0673,-0.0669,-0.0669,-0.0752,-0.0679,-0.0679,-0.0679,-0.0679,-0.0679,0,-0.1413,-0.1376,-0.1323,-0.1254,-0.1207,-0.1197,-0.1141,-0.1102,-0.1044,-0.0992,-0.0939,-0.0865,-0.0801,-0.0748,-0.0682,-0.0649,-0.0639,-0.0633,-0.0634,-0.0626,-0.0672,-0.0688,-0.0642,-0.0642,-0.0642,-0.0642,-0.0642,-0.0642,-0.1375,-0.1308,-0.1284,-0.1197,-0.116,-0.1095,-0.1064,-0.102,-0.0979,-0.0898,-0.0846,-0.0813,-0.076,-0.0691,-0.0632,-0.0618,-0.0594,-0.059,-0.0574,-0.0618,-0.0622,-0.0626,-0.0641,-0.0586,-0.0586,-0.0532,-0.0531,-0.0531]},{"header":{"parameterUnit":"m.s-1","parameterCategory":1,"la1":30.2991,"la2":30.254,"lo1":-89.0895,"lo2":-89.0444,"dy":0.0017,"dx":0.0017,"nx":28,"ny":28,"refTime":"2025-04-26T21:00:00:Z","depth":0,"parameterNumber":3,"parameterNumberName":"V-component_of_WINDS"},"data":[0,0,0,0,0,0,0,0,0,0,0,0,0,0,0,0,0,0,0,0,0,0,0,0,0,0,0,0,0,0,0,0,0,0,0,0,0,0,0,0,0,0,0,0,0,0,0,0,0,0,0,0,0,0,0,0,0,0,3.1108,3.1109,0,3.1175,3.1176,3.1176,3.125,3.1251,3.1253,3.1254,3.1315,3.1316,3.1317,0,0,0,0,0,0,0,0,0,0,0,0,0,3.1038,3.1039,3.1108,3.1109,3.111,3.1175,3.1176,3.1177,3.125,3.1251,3.1253,3.1254,3.1315,3.1316,3.1317,0,0,0,0,0,0,0,0,0,0,0,0,0,3.1083,3.1039,3.1108,3.1155,3.1159,3.1175,3.1176,3.1177,3.125,3.1252,3.1253,3.1255,3.1315,3.1316,3.1317,3.129,0,0,3.132,3.132,0,0,0,0,0,0,0,0,3.108,3.1085,3.1147,3.1151,3.1157,3.1206,3.1174,3.1215,3.1249,3.1215,3.1254,3.1255,3.1277,3.1281,3.129,3.1293,3.1295,3.132,3.132,3.1321,3.1321,0,0,0,0,0,0,0,3.1077,3.1083,3.1135,3.1148,3.1154,3.117,3.1178,3.1182,3.1236,3.1218,3.1224,3.1231,3.128,3.1289,3.1292,3.1296,3.132,3.1321,3.1321,3.1322,3.1277,3.1276,0,0,0,0,0,0,3.1068,3.108,3.1132,3.1137,3.1122,3.117,3.1179,3.1189,3.1236,3.1245,3.123,3.1234,3.1287,3.1291,3.1295,3.1264,3.1321,3.1322,3.1322,3.1279,3.1277,3.1275,0,0,0,0,0,0,3.1066,3.1072,3.113,3.111,3.1118,3.1169,3.1179,3.1189,3.1198,3.1245,3.1254,3.1229,3.1288,3.1293,3.129,3.1268,3.1322,3.1323,3.1281,3.1278,3.1276,3.1204,0,0,0,0,0,0,3.1063,3.1071,3.1062,3.1109,3.1119,3.1126,3.1178,3.1189,3.12,3.1207,3.1247,3.1255,3.129,3.1289,3.1291,3.127,3.1324,3.1283,3.128,3.1277,3.1209,3.12,3.1192,0,0,0,0,0,3.1061,3.1039,3.1062,3.1068,3.111,3.1125,3.113,3.1173,3.1198,3.1189,3.1219,3.1254,3.127,3.1288,3.1291,3.127,3.1285,3.1281,3.1277,3.1213,3.1201,3.1192,0,0,0,0,0,0,3.0986,3.1046,3.1072,3.1065,3.1089,3.1137,3.1127,3.116,3.1176,3.1181,3.1231,3.124,3.123,3.125,3.1269,3.1245,3.1282,3.1279,3.1232,3.1222,3.1213,3.1207,3.1324,0,0,0,0,0,3.0969,3.0978,3.1029,3.1017,3.1029,3.1076,3.1083,3.1114,3.1141,3.1151,3.1181,3.1203,3.1214,3.1219,3.1231,3.1213,3.1221,3.12,3.1191,3.1184,3.1179,3.1168,3.1159,3.1262,3.1262,3.1262,0,0,3.0933,3.0967,3.0969,3.1003,3.1026,3.1031,3.1084,3.1088,3.1092,3.1151,3.115,3.1172,3.1201,3.119,3.1186,3.1206,3.1153,3.1179,3.1172,3.1172,3.1163,3.1154,3.1145,3.126,3.126,3.1261,0,0,3.0871,3.0898,3.0891,3.0913,3.0947,3.0979,3.0977,3.102,3.1038,3.1038,3.1082,3.1086,3.1104,3.1121,3.1133,3.1076,3.1108,3.1079,3.1032,3.1021,3.1013,3.1006,3.0983,3.0975,3.1075,3.1074,3.1074,0,3.0821,3.0834,3.0883,3.0884,3.0896,3.0952,3.0943,3.0962,3.0997,3.1003,3.1026,3.1048,3.1071,3.1063,3.1049,3.1058,3.1055,3.1073,3.1011,3.1004,3.0998,3.0977,3.0969,3.1071,3.1071,3.1071,3.1072,0,3.077,3.0778,3.0767,3.0802,3.0813,3.0809,3.0855,3.0861,3.089,3.0918,3.0916,3.0946,3.0965,3.0966,3.0994,3.0961,3.0972,3.1002,3.104,3.0984,3.0965,3.0957,3.1065,3.1066,3.1067,3.1068,0,0,3.0661,3.0723,3.0718,3.0734,3.0776,3.0781,3.0779,3.0799,3.0801,3.0824,3.0821,3.0834,3.0862,3.0874,3.0905,3.0896,3.0846,3.0927,3.0928,3.0908,3.0809,3.0784,3.0774,3.0868,3.0867,3.0866,3.0806,0,3.0604,3.0606,3.0649,3.0637,3.0643,3.0696,3.0694,3.0718,3.0744,3.0751,3.0779,3.0787,3.0824,3.0832,3.0825,3.0853,3.0826,3.0859,3.0863,3.0863,3.0852,3.0765,3.074,3.0681,3.0799,3.0798,3.0797,0,3.0538,3.0558,3.0547,3.0588,3.0592,3.059,3.061,3.0618,3.0645,3.0664,3.0678,3.0713,3.0711,3.0749,3.0745,3.0766,3.0771,3.0785,3.0784,3.0784,3.0824,3.076,3.0664,3.0654,3.0786,3.0787,3.0787,0,3.0457,3.0481,3.0477,3.0489,3.0537,3.0534,3.0553,3.0583,3.0591,3.0609,3.0614,3.063,3.0639,3.0649,3.0687,3.0712,3.0678,3.0719,3.0691,3.069,3.068,3.068,3.0581,3.0687,3.0687,3.0687,3.0687,0,3.0387,3.0377,3.0441,3.0438,3.0428,3.0478,3.0466,3.049,3.0515,3.0516,3.0563,3.0563,3.0614,3.0619,3.0648,3.0639,3.0643,3.0657,3.0664,3.0651,3.0649,3.0653,3.0657,3.0685,3.0685,3.0686,3.0686,0,3.0294,3.0336,3.0335,3.0381,3.0393,3.0383,3.0421,3.0419,3.0449,3.0449,3.0452,3.0497,3.0505,3.0544,3.0561,3.0581,3.056,3.0577,3.0551,3.0555,3.0524,3.0526,3.0422,3.041,3.0526,3.0525,3.0524,0,3.0245,3.024,3.0285,3.029,3.0308,3.0316,3.0325,3.0373,3.038,3.041,3.0403,3.0416,3.0427,3.0437,3.0469,3.0481,3.0497,3.046,3.0499,3.0486,3.0494,3.0492,3.0491,3.0451,3.0449,3.0448,3.0447,0,3.0154,3.0175,3.0188,3.0208,3.0218,3.0235,3.0255,3.0255,3.0308,3.0313,3.0323,3.0332,3.0349,3.0359,3.0377,3.0395,3.0428,3.0435,3.0429,3.0414,3.0398,3.0404,3.0525,3.0437,3.0438,3.0439,3.0439,3.044,3.008,3.0077,3.0108,3.012,3.014,3.0158,3.0158,3.0187,3.0197,3.0215,3.0243,3.0248,3.0273,3.0301,3.0316,3.0319,3.0338,3.033,3.0327,3.0324,3.0316,3.04,3.0323,3.0323,3.0323,3.0324,3.0324,0,2.9989,3.0012,3.0023,3.005,3.0058,3.0093,3.0116,3.012,3.0124,3.0147,3.0158,3.0167,3.0177,3.021,3.0223,3.0219,3.0234,3.022,3.0219,3.0222,3.0299,3.0302,3.0207,3.0207,3.0207,3.0207,3.0207,3.0207,2.9943,2.9938,2.9963,2.9968,2.999,2.9997,3.0007,3.0022,3.004,3.0049,3.0058,3.0081,3.0107,3.0122,3.0131,3.0141,3.0142,3.0122,3.0136,3.0206,3.0217,3.0228,3.0231,3.0122,3.0122,3.0059,3.0058,3.0058]}]]